DECAYED

NOAA 16 DEB, 41519 (Decayed)

Orbit data source: Space-Track

NOAA 16 DEB, 41519 was space debris in SSO originally from a launch on Thu, 21 Sep 2000 UTC launched from the Air Force Western Test Range (AFWTR). Debris objects in space refer to the collection of defunct objects orbiting the Earth. Examples of debris include non-operational satellites, rocket bodies, and fragments generated from explosions, collisions, or faulty payload assembly.

Not visible in the next 10 days
Identifier
41519, 2000-055MT
Orbit
Decayed
Country
Flag of USUS
Related business
Manufacturer
Unknown
Mission
Decayed spacecraft
Bus & Motor
Unknown
Mass
Unknown
Launch date (UTC)
2000-09-21 (26 years ago)
Launch vehicle
Unknown
Launch site
Air Force Western Test Range (AFWTR)
Object type
Payload
Rocket body
Debris
Shape & HBR
Unknown shape, 0.1 m
Radar Cross Section
Medium (>0.1 m² and <1 m²)

Expand to show TLE details & history
Last TLE update: 1 year ago

TLE from 1 year ago
0 NOAA 16 DEB
1 41519U 00055MT  25192.18492352  .01115139  00000-0  13080-1 0  9997
2 41519  98.7867 339.0083 0027334 287.1523  72.6736 15.58491126480184
Epoch: 2025-07-11T04:26Z
TLE epoch observation values (Epoch: 2025-07-11T04:26:17.392Z)
Latitude
-0.00001°
Longitude
-16.90465°
Altitude
389.656 km
Speed
7.679 km/s
True Right ascension
22h 36m 01s
True Declination
0° 00' 00"
Sunlit
Object was in full shadow at epoch
Visualization orbit readout
Latitude
Unknown
Longitude
Unknown
Altitude
Unknown
Speed
Unknown
Apparent Right ascension
Unknown
Apparent Declination
Unknown
Sunlit
N/A
Visualization observer readout
Local Sidereal Time
01:31:05
Azimuth
Unknown
Elevation
Unknown
Doppler factor
Unknown
Orbital elements
Apogee altitude
407.501 km
Perigee altitude
370.506 km
Semi-major axis
6,767.141 km
Eccentricity
0.00273
Inclination
98.7867°
RAAN
339.0083°
Arg. of periapsis
287.1523°
True anomaly
72.97291°
Mean anomaly
72.6736°
Eccentric anomaly
72.82323°
Mean motion
3.89884 °/min
Orbital period
92.34 mins
BSTAR
0.01308
Loading maneuver chart data...
Computing Atmospheric mass density...
Loading historical data...
Loading historical data...
Loading historical data...
Loading historical data...
Loading historical data...
Loading historical data...
Loading historical data...

Documentation

Showing up to 5 results
|